Retour au catalogue

CZ-3C DEB

LostHEO
NORAD 44526·DEBRIS·🇨🇳 China

Lancé Oct 31, 2010 depuis Xichang Satellite Launch Center

Loading…

Prochains Passages (prochaines 24 heures)

TLE

PériméSource: Space-Track

Époque: Dec 14, 2025, 22:35 UTC

1 44526U 10057BL  25348.94118097  .00000166  00000-0  89110-3 0  9990
2 44526  21.4546 161.4389 6980678 192.6332 130.9564  2.49206901 91660

Suivez CZ-3C DEB en temps réel avec AllMySat

Download on the App Store